Flag for U.S.A. Weather past 2 weeks in Winston-Salem, North Carolina, U.S.A.

Now
78 °F

Overcast.


Feels Like: 80 °F
Forecast: 69 / 87 °F
Wind: 5 mph from East

Location: Smith Reynolds Airport

Current Time: Aug 31, 2015 at 8:30:19 PM

Latest Report: Aug 31, 2015 at 7:54 PM


Visibility: 10 mi

Pressure: 30.06 "Hg

Humidity: 71%

Dew point: 68 °F

Location of Winston-SalemLocation

Historic Weather in Winston-Salem — Graph

°F

Winston-Salem temperature yesterday

Maximum temperature yesterday: 80 °F (at 11:54 AM)
Minimum temperature yesterday: 68 °F (at 5:54 AM)
Average temperature yesterday: 74 °F

Past Weeks' High & Low Weather Summary

 TemperatureHumidityPressure
High88 °F (Aug 24, 1:54 PM)97% (Aug 18, 2:54 AM)30.24 "Hg (Aug 18, 2:54 AM)
Low62 °F (Aug 27, 5:54 AM)40% (Aug 28, 5:54 PM)29.86 "Hg (Aug 24, 4:54 PM)
Average75 °F71%30.04 "Hg
* Reported Aug 16 6:54 PM — Aug 31 6:54 PM, Winston-Salem, Weather by CustomWeather, © 2015

Note: Actual official high and low records may vary slightly from our data, if they occured in-between our weather recording intervals... More about our weather records

Advertising

Winston-Salem weather history for previous 24 hours

 ConditionsComfort  
Time TempWeatherWind HumidityBarometerVisibility
6:54 PM
Mon, Aug 31
81 °FSunny.5 mph62%30.06 "Hg10 mi
5:54 PM83 °FSunny.6 mph57%30.04 "Hg10 mi
4:54 PM82 °FSunny.3 mph56%30.05 "Hg10 mi
3:54 PM82 °FScattered clouds.5 mph58%30.06 "Hg10 mi
2:54 PM81 °FScattered clouds.8 mph62%30.08 "Hg10 mi
1:54 PM79 °FPassing clouds.6 mph65%30.09 "Hg10 mi
12:54 PM78 °FPartly sunny.N/A69%30.11 "Hg10 mi
11:54 AM76 °FScattered clouds.3 mph77%30.13 "Hg10 mi
10:54 AM73 °FPartly sunny.3 mph81%30.13 "Hg10 mi
9:54 AM72 °FPassing clouds.6 mph81%30.12 "Hg10 mi
8:54 AM69 °FOvercast.3 mph90%30.12 "Hg8 mi
7:54 AM67 °FFog.No wind93%30.11 "Hg6 mi
6:54 AM68 °FOvercast.3 mph90%30.10 "Hg10 mi
5:54 AM68 °FLight rain. Fog.3 mph90%30.10 "Hg5 mi
5:01 AM68 °FMostly cloudy.No wind90%30.13 "Hg10 mi
3:54 AM68 °FLight rain. Overcast.No wind87%30.10 "Hg8 mi
2:54 AM69 °FLight rain. Partly cloudy.3 mph81%30.11 "Hg10 mi
1:54 AM70 °FMostly cloudy.No wind79%30.11 "Hg10 mi
12:54 AM71 °FPassing clouds.3 mph78%30.11 "Hg10 mi
11:54 PM
Sun, Aug 30
73 °FOvercast.6 mph71%30.12 "Hg10 mi
10:54 PM74 °FOvercast.6 mph67%30.14 "Hg10 mi
9:54 PM75 °FOvercast.3 mph69%30.14 "Hg10 mi
8:54 PM74 °FOvercast.No wind76%30.12 "Hg10 mi
Weather by CustomWeather, © 2015

See weather overviewHow to use our weather pages